Waarnemingen

Advertentie
Mijn weer
Tarbes/Ossun, Frankrijk (7621): temperatuur & dauwpunt: 17.07.2017 10:00:00 - 23.07.2017 10:00:00 (CEST)Tarbes/Ossun, Frankrijk (7621): temperatuur 5cm: 17.07.2017 10:00:00 - 23.07.2017 10:00:00 (CEST)Tarbes/Ossun, Frankrijk (7621): temperatuur -20cm & temperatuur -100cm: 17.07.2017 10:00:00 - 23.07.2017 10:00:00 (CEST)Tarbes/Ossun, Frankrijk (7621): windsnelheid & windstoten: 17.07.2017 10:00:00 - 23.07.2017 10:00:00 (CEST)Tarbes/Ossun, Frankrijk (7621): windrichting: 17.07.2017 10:00:00 - 23.07.2017 10:00:00 (CEST)Tarbes/Ossun, Frankrijk (7621): luchtdruk: 17.07.2017 10:00:00 - 23.07.2017 10:00:00 (CEST)Tarbes/Ossun, Frankrijk (7621): zicht: 17.07.2017 10:00:00 - 23.07.2017 10:00:00 (CEST)Tarbes/Ossun, Frankrijk (7621): Zonneschijnduur: 17.07.2017 10:00:00 - 23.07.2017 10:00:00 (CEST)Tarbes/Ossun, Frankrijk (7621): neerslag: 17.07.2017 10:00:00 - 23.07.2017 10:00:00 (CEST)
Datum & Tijd tt [°C] td [°C] tt 5cm [°C] tt -20cm [°C] tt -100cm [°C] ff [km/u] ff [kn] fx [km/u] fx [kn] dd ppp [hPa] vv [km] sd [min] rr [mm]
23.07.2017 10:00:00 18,0 12,9 18,9 20,3 18,6 4 2 9 5 WZW 1022,1 59 0 0,0
23.07.2017 09:00:00 16,8 13,9 16,5 20,4 18,6 6 4 12 6 ZZW 1022,1 46 0 0,0
23.07.2017 08:00:00 16,0 14,2 - - - 9 5 13 7 Z 1021,9 45 - -
23.07.2017 07:00:00 15,7 14,1 15,0 20,5 18,6 8 5 11 6 Z 1021,8 34 0 0,0
23.07.2017 06:00:00 15,6 13,8 15,0 20,5 18,6 6 4 14 8 Z 1021,8 37 0 0,0
23.07.2017 05:00:00 15,6 14,0 15,1 20,6 18,6 7 4 13 7 Z 1021,5 32 0 0,0
23.07.2017 04:00:00 15,6 14,1 15,2 20,7 18,6 6 3 15 8 ZZW 1021,7 6 0 0,0
23.07.2017 03:00:00 16,1 14,3 16,0 20,7 18,6 9 5 16 9 WZW 1021,7 20 0 0,0
23.07.2017 02:00:00 16,2 14,4 - - - 8 4 18 10 ZZW 1021,8 26 - -
23.07.2017 01:00:00 16,5 14,7 - - - 13 7 21 11 WZW 1021,7 18 - 0,0
23.07.2017 00:00:00 17,0 15,5 16,7 20,9 18,6 10 5 22 12 WNW 1021,2 7 0 0,0
22.07.2017 23:00:00 18,2 15,1 17,8 20,9 18,6 8 4 14 7 WZW 1020,5 24 0 0,0
22.07.2017 22:00:00 18,9 14,8 18,3 20,9 18,6 12 6 19 11 WZW 1019,4 27 0 0,0
22.07.2017 21:00:00 19,6 14,4 19,0 20,8 18,6 8 5 16 9 W 1018,6 31 0 0,0
22.07.2017 20:00:00 20,2 14,6 19,9 20,7 18,6 10 5 20 11 NW 1017,5 47 0 0,0
22.07.2017 19:00:00 21,2 15,5 22,0 20,6 18,6 13 7 21 11 NW 1016,7 35 0 0,0
22.07.2017 18:00:00 22,3 15,9 24,6 20,5 18,6 13 7 19 11 WNW 1016,1 42 1 0,0
22.07.2017 17:00:00 22,4 15,0 23,3 20,3 18,6 13 7 23 12 NW 1015,8 34 0 0,0
22.07.2017 16:00:00 23,9 14,6 28,3 20,1 18,6 7 4 22 12 N 1015,2 20 28 0,0
22.07.2017 15:00:00 24,0 15,2 35,9 20,0 18,6 8 5 24 13 WNW 1014,8 30 58 0,0
22.07.2017 14:00:00 22,9 14,7 - - - 5 3 15 8 ZO 1015,0 50 - -
22.07.2017 13:00:00 21,7 14,6 29,3 19,9 18,7 4 2 13 7 Z 1015,4 29 26 0,0
22.07.2017 12:00:00 20,8 14,7 - - - 4 2 11 6 ZO 1015,6 23 - 0,0
22.07.2017 11:00:00 19,4 14,6 23,5 19,9 18,6 3 1 10 6 W 1015,4 20 8 0,0
22.07.2017 10:00:00 18,4 15,3 20,0 19,9 18,6 7 4 13 7 N 1015,2 16 45 0,0
22.07.2017 09:00:00 16,9 15,2 17,0 19,9 18,6 5 3 9 5 O 1015,3 9 0 0,0
22.07.2017 08:00:00 16,2 14,7 - - - 4 2 8 4 W 1015,1 11 - -
22.07.2017 07:00:00 16,1 15,1 16,0 20,0 18,7 4 2 8 5 NW 1015,1 9 0 0,0
22.07.2017 06:00:00 16,2 15,1 16,0 20,1 18,7 4 2 5 3 N 1014,9 8 0 0,0
22.07.2017 05:00:00 16,2 15,1 16,0 20,1 18,7 4 2 7 4 N 1014,8 8 0 0,0
22.07.2017 04:00:00 16,2 14,7 15,9 20,1 18,7 3 2 7 4 ZZW 1015,0 12 0 0,0
22.07.2017 03:00:00 16,2 14,7 - - - 5 3 8 4 W 1015,2 11 - 0,0
22.07.2017 02:00:00 16,2 14,7 16,0 20,2 18,7 2 1 10 6 NNW 1015,3 14 0 0,0
22.07.2017 01:00:00 16,5 15,4 16,1 20,2 18,7 5 3 8 4 W 1015,3 11 0 0,0
22.07.2017 00:00:00 16,5 15,2 16,1 20,3 18,7 4 2 8 5 WZW 1015,4 16 0 0,0
21.07.2017 23:00:00 16,4 14,9 16,2 20,3 18,7 4 2 11 6 ZZW 1014,9 19 0 0,0
21.07.2017 22:00:00 16,5 15,2 16,3 20,4 18,7 4 2 12 6 W 1015,0 15 0 0,0
21.07.2017 21:00:00 16,8 15,5 16,7 20,4 18,7 10 5 16 9 WNW 1014,5 21 0 0,0
21.07.2017 20:00:00 17,1 15,8 16,8 20,3 18,7 11 6 17 9 WNW 1014,0 8 0 0,0
21.07.2017 19:00:00 18,6 15,3 18,7 20,3 18,7 11 6 29 16 WNW 1013,2 25 0 0,0
21.07.2017 18:00:00 19,4 15,3 20,0 20,3 18,7 5 3 16 9 WNW 1012,8 28 0 0,0
21.07.2017 17:00:00 18,4 15,1 19,6 20,3 18,7 9 5 20 11 WNW 1013,0 26 0 0,0
21.07.2017 16:00:00 18,6 15,3 20,3 20,3 18,7 9 5 15 8 NNW 1013,2 26 0 0,0
21.07.2017 15:00:00 18,2 14,9 18,9 20,2 18,7 4 2 18 10 NW 1013,0 27 0 0,0
21.07.2017 14:00:00 18,3 15,0 20,2 20,2 18,7 2 1 13 7 NNW 1012,9 28 0 0,0
21.07.2017 13:00:00 18,2 15,1 20,1 20,2 18,7 6 3 16 9 NNW 1013,1 34 0 0,0
21.07.2017 12:00:00 17,6 15,0 19,9 20,2 18,7 6 3 11 6 NO 1013,0 30 0 0,0
21.07.2017 11:00:00 16,9 14,9 18,1 20,3 18,7 6 4 13 7 NO 1013,4 20 0 0,0
21.07.2017 10:00:00 15,7 14,6 15,9 20,4 18,7 5 3 18 10 NNO 1014,0 19 0 0,0
21.07.2017 09:00:00 15,4 14,8 14,9 20,4 18,7 10 6 16 8 N 1013,8 11 0 0,2
21.07.2017 08:00:00 14,8 13,8 14,6 20,5 18,7 5 3 22 12 NO 1013,8 18 0 1,0
21.07.2017 07:00:00 14,9 14,1 14,8 20,6 18,7 4 2 8 4 ZW 1014,6 16 0 0,0
21.07.2017 06:00:00 14,7 13,9 14,8 20,7 18,7 5 3 9 5 NNO 1014,2 7 0 0,4
21.07.2017 05:00:00 14,9 14,1 15,0 20,7 18,7 4 2 8 4 NW 1014,8 4,1 0 0,2
21.07.2017 04:00:00 15,1 14,5 15,2 20,8 18,7 5 3 8 4 N 1015,0 4,8 0 0,2
21.07.2017 03:00:00 15,1 14,3 15,3 20,9 18,7 3 2 5 3 NNW 1015,6 3,1 0 0,2
21.07.2017 02:00:00 15,2 14,6 - - - 4 2 8 4 WNW 1016,3 3,2 - -
21.07.2017 01:00:00 15,2 14,6 15,3 21,0 18,7 5 3 11 6 W 1017,0 2,7 0 0,6
21.07.2017 00:00:00 15,3 14,5 15,3 21,1 18,7 0 0 8 4 N 1017,2 2,4 0 0,2
20.07.2017 23:00:00 15,3 14,5 15,4 21,2 18,7 5 3 11 6 WNW 1017,6 2,8 0 0,2
20.07.2017 22:00:00 15,7 14,9 15,5 21,2 18,7 6 4 22 12 NW 1017,5 5 0 0,2
20.07.2017 21:00:00 16,0 15,4 16,1 21,2 18,6 9 5 18 10 N 1017,3 2,5 0 0,4
20.07.2017 20:00:00 16,4 15,8 16,6 21,2 18,7 11 6 21 11 N 1017,3 2,0 0 0,8
20.07.2017 19:00:00 17,1 16,3 17,5 21,3 18,7 9 5 17 9 NNW 1017,0 2,0 0 0,4
20.07.2017 18:00:00 17,1 16,1 17,4 21,3 18,7 11 6 25 14 NNW 1017,2 2,8 0 0,2
20.07.2017 17:00:00 17,7 15,7 17,4 21,3 18,6 14 7 19 10 NNW 1017,1 16 0 0,0
20.07.2017 16:00:00 18,7 15,9 18,6 21,3 18,7 10 5 17 9 NW 1017,0 51 0 0,0
20.07.2017 15:00:00 17,7 16,4 17,9 21,3 18,6 11 6 21 11 N 1017,3 7 0 0,2
20.07.2017 14:00:00 17,2 15,9 18,1 21,3 18,6 15 8 29 16 NW 1017,5 7 0 0,0
20.07.2017 13:00:00 19,2 15,9 21,1 21,4 18,6 13 7 28 15 WNW 1017,0 57 0 0,0
20.07.2017 12:00:00 19,0 15,7 19,9 21,4 18,6 7 4 14 8 NW 1016,8 43 0 0,0
20.07.2017 11:00:00 18,4 15,8 19,4 21,4 18,6 7 4 19 10 NNW 1017,0 45 0 0,0
20.07.2017 10:00:00 17,8 15,8 18,3 21,5 18,6 9 5 16 9 NW 1017,2 57 0 0,0
20.07.2017 09:00:00 17,5 15,8 17,9 21,6 18,6 9 5 14 8 W 1017,0 33 0 0,0
20.07.2017 08:00:00 17,4 15,7 16,7 21,7 18,6 4 2 16 9 W 1016,5 41 0 0,0
20.07.2017 07:00:00 17,1 15,6 16,5 21,7 18,6 6 4 13 7 ZZW 1016,6 38 0 0,0
20.07.2017 06:00:00 17,1 15,8 16,6 21,8 18,6 9 5 13 7 ZZW 1016,5 36 0 0,0
20.07.2017 05:00:00 17,3 15,8 16,9 21,9 18,6 6 4 11 6 WZW 1016,5 29 0 0,0
20.07.2017 04:00:00 17,5 16,2 17,1 22,0 18,6 7 4 15 8 ZZW 1016,7 20 0 0,0
20.07.2017 03:00:00 17,8 16,5 17,3 22,1 18,5 8 4 20 11 ZW 1016,8 16 0 0,0
20.07.2017 02:00:00 18,0 16,8 17,7 22,2 18,5 10 5 19 10 W 1016,7 6 0 0,0
20.07.2017 01:00:00 18,2 17,0 - - - 9 5 21 11 W 1016,3 9 - 2,0
20.07.2017 00:00:00 18,5 17,5 18,0 22,4 18,5 12 6 24 13 WZW 1015,8 31 0 0,6
19.07.2017 23:00:00 18,7 17,7 18,4 22,5 18,5 18 10 34 18 W 1015,4 17 0 1,0
19.07.2017 22:00:00 18,7 17,9 17,3 22,6 18,5 15 8 52 28 WZW 1014,4 16 0 21,1
19.07.2017 21:00:00 20,8 18,4 - - - 15 8 31 17 NW 1012,8 9 - 0,0
19.07.2017 20:00:00 22,5 17,8 22,5 22,6 18,5 9 5 15 8 W 1012,6 19 0 0,0
19.07.2017 19:00:00 23,2 17,6 24,4 22,6 18,5 9 5 33 18 NNW 1012,4 20 0 0,0
19.07.2017 18:00:00 23,2 17,4 24,8 22,6 18,5 9 5 23 12 NNW 1012,8 23 0 0,0
19.07.2017 17:00:00 23,2 17,4 25,2 22,5 18,5 10 5 18 10 NW 1012,5 20 0 0,0
19.07.2017 16:00:00 23,2 18,1 27,1 22,5 18,5 11 6 20 11 NNW 1012,7 20 0 0,0
19.07.2017 15:00:00 23,1 18,0 27,7 22,4 18,4 11 6 22 12 NW 1012,2 20 0 0,0
19.07.2017 14:00:00 23,7 17,2 27,8 22,4 18,4 7 4 22 12 N 1011,8 18 19 0,0
19.07.2017 13:00:00 22,4 17,3 25,8 22,5 18,4 10 5 23 12 WNW 1012,1 19 0 0,0
19.07.2017 12:00:00 22,0 17,1 23,6 22,5 18,4 13 7 25 13 W 1012,4 19 11 0,0
19.07.2017 11:00:00 20,9 17,7 21,9 22,7 18,4 14 8 19 11 W 1012,4 19 0 0,0
19.07.2017 10:00:00 19,2 17,5 19,8 22,7 18,4 4 2 13 7 N 1012,3 10 0 0,0
19.07.2017 09:00:00 18,5 17,5 18,4 22,9 18,4 4 2 22 12 W 1012,3 7 0 0,0
19.07.2017 08:00:00 18,3 17,5 18,3 23,0 18,4 14 7 31 17 W 1012,1 3,4 0 0,0
19.07.2017 07:00:00 18,4 16,9 18,0 23,1 18,4 19 10 39 21 W 1011,0 7 0 0,0
19.07.2017 06:00:00 20,3 14,9 15,6 23,2 18,4 17 9 26 14 W 1009,3 37 0 0,0
19.07.2017 05:00:00 20,9 14,1 17,3 23,3 18,4 7 4 21 11 NNO 1009,1 41 0 0,0
19.07.2017 04:00:00 23,1 14,1 20,3 23,4 18,4 8 5 22 12 ZO 1009,2 44 0 0,0
19.07.2017 03:00:00 24,1 13,3 20,7 23,5 18,4 13 7 41 22 OZO 1011,4 45 0 0,0
19.07.2017 02:00:00 22,3 14,7 19,9 23,6 18,4 9 5 31 17 Z 1014,1 41 0 0,0
19.07.2017 01:00:00 22,2 15,1 20,2 23,6 18,4 19 11 42 23 WNW 1015,0 39 0 0,0
19.07.2017 00:00:00 21,9 15,5 20,8 23,7 18,4 10 6 19 11 WNW 1012,2 36 0 0,0
18.07.2017 23:00:00 23,8 14,5 21,1 23,7 18,4 10 5 26 14 ZZW 1011,9 34 0 0,0
18.07.2017 22:00:00 24,5 13,4 23,3 23,6 18,3 15 8 77 42 WNW 1011,4 51 0 0,0
18.07.2017 21:00:00 28,2 21,5 26,7 23,4 18,3 10 6 24 13 N 1008,0 43 0 0,0
18.07.2017 20:00:00 31,2 21,4 30,6 23,2 18,3 9 5 23 13 NO 1007,5 49 36 0,0
18.07.2017 19:00:00 33,3 21,5 40,1 23,0 18,3 11 6 26 14 NO 1006,1 44 60 0,0
18.07.2017 18:00:00 33,7 21,2 39,6 22,8 18,3 12 6 24 13 ONO 1007,1 45 48 0,0
18.07.2017 17:00:00 34,4 20,7 39,0 22,5 18,3 10 5 27 15 NO 1007,4 60 32 0,0
18.07.2017 16:00:00 34,8 20,0 45,2 22,4 18,3 12 7 25 13 NO 1007,7 50 57 0,0
18.07.2017 15:00:00 34,6 18,6 40,9 22,2 18,3 9 5 27 15 O 1008,3 49 43 0,0
18.07.2017 14:00:00 33,8 17,9 41,7 22,1 18,3 14 8 29 15 NNW 1009,1 36 57 0,0
18.07.2017 13:00:00 33,7 17,4 41,0 22,0 18,3 16 8 23 13 N 1009,2 20 60 0,0
18.07.2017 12:00:00 31,0 19,4 39,0 22,0 18,3 14 7 22 12 N 1009,7 34 60 0,0
18.07.2017 11:00:00 30,7 17,8 36,0 22,0 18,3 8 5 14 8 NNO 1009,9 46 60 0,0
18.07.2017 10:00:00 28,5 16,4 25,3 22,1 18,3 6 4 15 8 ONO 1010,2 38 60 0,0
18.07.2017 09:00:00 23,0 18,3 19,0 22,2 18,3 6 3 13 7 NW 1011,2 31 57 0,0
18.07.2017 08:00:00 18,8 17,5 13,8 22,4 18,3 7 4 10 5 ZZW 1011,4 21 60 0,0
18.07.2017 07:00:00 15,6 14,5 12,0 22,5 18,3 7 4 10 5 ZZO 1011,8 20 0 0,2
18.07.2017 06:00:00 16,2 14,7 11,9 22,6 18,3 0 0 4 2 N 1011,8 24 0 0,0
18.07.2017 05:00:00 16,3 14,7 11,9 22,8 18,3 2 1 5 3 W 1011,7 24 0 0,0
18.07.2017 04:00:00 17,7 16,2 13,1 22,9 18,3 3 2 9 5 ZW 1011,8 25 0 0,0
18.07.2017 03:00:00 17,6 16,1 14,0 23,0 18,3 6 4 10 5 ZZW 1012,1 22 0 0,0
18.07.2017 02:00:00 18,4 16,6 13,8 23,1 18,2 0 0 6 3 N 1012,3 24 0 0,0
18.07.2017 01:00:00 19,4 17,7 14,9 23,2 18,3 0 0 6 3 N 1012,3 24 0 0,0
18.07.2017 00:00:00 20,3 17,3 16,0 23,2 18,2 4 2 9 5 NNW 1012,3 24 0 0,0
17.07.2017 23:00:00 22,5 19,5 17,3 23,2 18,2 2 1 17 9 ONO 1012,0 26 0 0,0
17.07.2017 22:00:00 26,4 18,5 21,6 23,1 18,2 10 5 15 8 NO 1011,5 27 12 0,0
17.07.2017 21:00:00 29,1 19,7 27,0 23,0 18,2 10 5 23 12 ZO 1011,2 45 55 0,0
17.07.2017 20:00:00 30,9 19,6 31,6 22,8 18,2 13 7 38 20 O 1011,4 50 60 0,0
17.07.2017 19:00:00 31,7 18,3 38,8 22,5 18,2 14 8 31 17 O 1011,9 60 60 0,0
17.07.2017 18:00:00 32,3 17,4 35,9 22,3 18,2 14 7 34 18 NO 1012,6 60 39 0,0
17.07.2017 17:00:00 32,6 17,6 38,0 22,1 18,2 24 13 34 18 N 1013,2 60 41 0,0
17.07.2017 16:00:00 32,8 17,8 36,9 21,9 18,2 11 6 27 15 O 1012,5 48 33 0,0
17.07.2017 15:00:00 33,2 18,9 39,7 21,7 18,2 13 7 38 20 O 1012,6 20 46 0,0
17.07.2017 14:00:00 33,0 19,5 43,4 21,6 18,2 8 4 29 16 ONO 1012,9 19 60 0,0
17.07.2017 13:00:00 31,7 19,3 36,1 21,5 18,2 11 6 19 10 O 1013,3 26 41 0,0
17.07.2017 12:00:00 30,7 17,8 40,0 21,5 18,2 9 5 19 10 ONO 1013,9 60 57 0,0
17.07.2017 11:00:00 28,7 16,6 30,6 21,5 18,2 6 3 16 9 ONO 1014,5 35 45 0,0
17.07.2017 10:00:00 26,8 16,4 26,7 21,6 18,2 6 4 16 9 NO 1015,0 48 58 0,0

tt = temperatuur
td = dauwpunt
tt 5cm = temperatuur 5cm
tt -20cm = temperatuur -20cm
tt -100cm = temperatuur -100cm
ff = windsnelheid
fx = windstoten
dd = windrichting
ppp = luchtdruk
vv = zicht
sd = Zonneschijnduur
rr = neerslag

Weerstations in de omgeving